Regional Weather Roundup
Issued by NWS

Home | Current Version | Previous Version | Text Only | Print | Product List | Glossary On
Versions: 1 2 3 4 5 6 7 8 9 10 11 12 13 14 15 16 17 18 19 20 21 22 23 24 25 26 27 28 29 30 31 32 33 34 35 36 37 38 39 40 41 42 43 44 45 46 47 48 49 50
000
ASUS43 KMKX 301500
RWRWI

WISCONSIN REGIONAL WEATHER ROUNDUP
NATIONAL WEATHER SERVICE MILWAUKEE/SULLIVAN WI
1000 AM CDT SAT MAY 30 2015

NOTE: "FAIR" INDICATES FEW OR NO CLOUDS BELOW 12,000 FEET WITH NO
SIGNIFICANT WEATHER AND/OR OBSTRUCTIONS TO VISIBILITY.

WIZ001-002-006>008-014>016-023>028-301600-
NORTHWEST WISCONSIN

CITY           SKY/WX    TMP DP  RH WIND       PRES   REMARKS
SUPERIOR ARPT  MOSUNNY   49  36  61 N8        30.27R
ASHLAND        CLOUDY    48  39  71 NE13G21   30.27R
HAYWARD        CLOUDY    50  41  71 NE14      30.23R
SIREN          PTSUNNY   51  40  64 N13       30.23R
CUMBERLAND     CLOUDY    48  41  76 NE14G22   30.20R
RICE LAKE      CLOUDY    50  43  75 N14       30.21R
CHETEK         CLOUDY    50  44  80 N10G17    30.20R
LADYSMITH      CLOUDY    51  45  80 N15G21    30.20R
EAU CLAIRE     NOT AVBL
MENOMONIE      CLOUDY    52  45  76 N14       30.18R
NEW RICHMOND   CLOUDY    50  42  72 N13G21    30.21R
OSCEOLA        PTSUNNY   50  41  70 N12       30.25R
$$

WIZ003>005-009-010-017-018-301600-
NORTH CENTRAL WISCONSIN

CITY           SKY/WX    TMP DP  RH WIND       PRES   REMARKS
MANITOWISH WTR CLOUDY    46  45  95 NE12G20   30.18R
ARBOR VITAE    CLOUDY    49  46  87 NE9G18    30.17R
WOODRUFF       CLOUDY    49  46  87 NE9G18    30.17R
RHINELANDER    CLOUDY    50  45  83 N8G18     30.15R
EAGLE RIVER    CLOUDY    47  46  95 NE14G20   30.15S
LAND O LAKES   CLOUDY    46  44  90 NE12      30.18R
PHILLIPS       CLOUDY    48  45  87 N14G20    30.16R
TOMAHAWK       CLOUDY    51  48  90 N6        30.15R
MEDFORD        CLOUDY    52  47  84 N13       30.14R
MERRILL        CLOUDY   N/A N/A N/A NE7       30.14R
$$

WIZ029-030-035-036-043>047-301600-
CENTRAL WISCONSIN

CITY           SKY/WX    TMP DP  RH WIND       PRES   REMARKS
WAUSAU         CLOUDY    54  47  77 N12       30.12R
MOSINEE        CLOUDY    54  52  94 NE14      30.13R
MARSHFIELD     CLOUDY    55  49  80 N8        30.13R
STEVENS POINT  LGT RAIN  51  50  93 NE7       30.11R
WAUPACA        CLOUDY    54  49  83 NE14G20   30.11R
WAUTOMA        LGT RAIN  52  52 100 NE9       30.10R FOG
WISC RAPIDS    RAIN      55  50  83 NE9       30.13R
CAMP DOUGLAS   DRIZZLE   55  55 100 VRB6      30.10R
$$

WIZ011>013-019>022-031-037>040-048>050-301600-
NORTHEAST WISCONSIN

CITY           SKY/WX    TMP DP  RH WIND       PRES   REMARKS
ANTIGO         CLOUDY    51  46  84 NE13G18   30.13R
SHAWANO        CLOUDY    54  49  85 NE13      30.12R
OCONTO         CLOUDY    51  46  84 NE13      30.11R
STURGEON BAY   CLOUDY    48  43  81 N15       30.14R
GREEN BAY      LGT RAIN  53  49  86 NE12G21   30.11R FOG
MANITOWOC      NOT AVBL
APPLETON       NOT AVBL
CLINTONVILLE   LGT RAIN  52  50  93 NE6       30.11R
OSHKOSH        RAIN      52  49  89 NE14G24   30.09R FOG
$$

WIZ032>034-041-042-053>061-301600-
SOUTHWEST WISCONSIN

CITY           SKY/WX    TMP DP  RH WIND       PRES   REMARKS
LA CROSSE      CLOUDY    57  51  80 N12       30.11R
SPARTA         CLOUDY    55  53  94 N5        30.11R
VIROQUA        CLOUDY    54  54 100 N13G20    30.08R
BOSCOBEL       LGT RAIN  59  56  89 N7        30.05R
PRAIRIE DU CHI CLOUDY    58  54  85 NW8G16    30.05R
PLATTEVILLE    CLOUDY    61  60  95 N21       30.00R
$$

WIZ056-057-062-063-064-067-068-301600-
SOUTH CENTRAL WISCONSIN

CITY           SKY/WX    TMP DP  RH WIND       PRES   REMARKS
REEDSBURG      LGT RAIN  53  51  95 NE13G18   30.07R
BARABOO/DELLS  DRIZZLE   53  51  93 NE15      30.07R
LONE ROCK      NOT AVBL
MINERAL POINT  CLOUDY    61  55  82 NE17G29   30.01R
MADISON        LGT RAIN  57  54  89 NE17G24   30.04R FOG
MIDDLETON      CLOUDY    58  56  93 NE21      30.03R
WATERTOWN      LGT RAIN N/A N/A N/A NE12      30.04R
MONROE         CLOUDY    68  63  83 W7        29.97S
JANESVILLE     CLOUDY    70  66  88 SW6       29.97R
$$

WIZ051-052-058>065-066-070>072-301600-
SOUTHEAST WISCONSIN

CITY           SKY/WX    TMP DP  RH WIND       PRES   REMARKS
MILWAUKEE      DRIZZLE   49  47  93 N15G28    30.05R
WAUKESHA       CLOUDY    50  48  93 NE13G23   30.05R
MILWAUKEE/TIMM CLOUDY    52  46  82 N17G26    30.06R
RACINE         CLOUDY    50  47  89 N17G29    30.05R
BURLINGTON     CLOUDY    52  50  95 NE10G16   30.02R
KENOSHA        CLOUDY    52  50  93 NE16      30.03R
FOND DU LAC    LGT RAIN  51  49  92 NE17      30.09R
SHEBOYGAN      LGT RAIN  49  46  90 NE22G32   30.08R FOG
WEST BEND      RAIN      50  46  87 NE16G28   30.06R
JUNEAU         LGT RAIN  52  51  95 NE15      30.07R
$$

LSZ147-162-301600-
LAKE SUPERIOR

STATION/POSITION TIME  TEMP    WIND        PRES    WAVE
                       AIR SEA DIR/SP/G            HT/PER
                 (UTC) (F)     (DEG/KT/KT) (MB)    (FT/S)
W MID LAKE BUOY  1350   40 37   10/ 14/ 16   N/A     2/ 4
DEVILS ISLAND    1400   42      10/ 12/ 13   N/A
PORT WING        1400   46      40/  8/ 12   N/A
SAXON HARBOR     1440   45      40/  9/ 12   N/A
$$

LMZ867-665-643>646-301600-
LAKE MICHIGAN

STATION/POSITION TIME  TEMP    WIND        PRES    WAVE
                       AIR SEA DIR/SP/G            HT/PER
                 (UTC) (F)     (DEG/KT/KT) (MB)    (FT/S)
CHAMBERS ISLAND  1400   50     350/ 16/ 19   N/A
N MID LAKE BUOY  1350   40 37  330/  6/  6   N/A     2/ 4
NORTHPORT PIER   1400   49     350/ 17/ 19   N/A
SISTER BAY       1403   49     360/ 14/ 18   N/A
ALGOMA LAKESHORE 1408           40/  9/ 15   N/A
KEWAUNEE LAKESHO 1400   47      30/  4/  8   N/A
SHEBOYGAN LAKESH 1400   46     360/ 19/ 21   N/A
PORT WASHINGTON  1400   51      10/  9/ 20   N/A
ATWATER BUOY     1400   51      30/ 21/ 25   N/A
MILWAUKEE LAKESH 1400   50      20/ 19/ 26   N/A
S MID LAKE BUOY  1350   42 38  360/ 10/ 12   N/A     0
KENOSHA   LAKESH 1400   50      10/ 19/ 22   N/A
$$

TC  - TEMPERATURE IN CELSIUS
VSB - VISIBILITY IN STATUTE MILES
WCI - WIND CHILL INDEX
HX  - HEAT INDEX




USA.gov is the U.S. government's official web portal to all federal, state and local government web resources and services.